Year,Month,Day,Hour,Minute,Value (Times are PST for temperature in C)
2012,08,10,00,00,12.80
2012,08,10,00,01,12.80
2012,08,10,00,02,12.70
2012,08,10,00,03,12.70
2012,08,10,00,04,12.70
2012,08,10,00,05,12.60
2012,08,10,00,06,12.60
2012,08,10,00,07,12.50
2012,08,10,00,08,12.50
2012,08,10,00,09,12.40
2012,08,10,00,10,12.40
2012,08,10,00,11,12.40
2012,08,10,00,12,12.40
2012,08,10,00,13,12.30
2012,08,10,00,14,12.30
2012,08,10,00,15,12.30
2012,08,10,00,16,12.30
2012,08,10,00,17,12.20
2012,08,10,00,18,12.20
2012,08,10,00,19,12.20
2012,08,10,00,20,12.20
2012,08,10,00,21,12.10
2012,08,10,00,22,12.10
2012,08,10,00,23,12.10
2012,08,10,00,24,12.00
2012,08,10,00,25,12.00
2012,08,10,00,26,11.90
2012,08,10,00,27,11.90
2012,08,10,00,28,11.90
2012,08,10,00,29,11.90
2012,08,10,00,30,11.80
2012,08,10,00,31,11.80
2012,08,10,00,32,11.80
2012,08,10,00,33,11.80
2012,08,10,00,34,11.70
2012,08,10,00,35,11.70
2012,08,10,00,36,11.70
2012,08,10,00,37,11.70
2012,08,10,00,38,11.60
2012,08,10,00,39,11.60
2012,08,10,00,40,11.60
2012,08,10,00,41,11.50
2012,08,10,00,42,11.50
2012,08,10,00,43,11.50
2012,08,10,00,44,11.50
2012,08,10,00,45,11.40
2012,08,10,00,46,11.40
2012,08,10,00,47,11.40
2012,08,10,00,48,11.40
2012,08,10,00,49,11.40
2012,08,10,00,50,11.40
2012,08,10,00,51,11.40
2012,08,10,00,52,11.40
2012,08,10,00,53,11.40
2012,08,10,00,54,11.40
2012,08,10,00,55,11.30
2012,08,10,00,56,11.30
2012,08,10,00,57,11.30
2012,08,10,00,58,11.30
2012,08,10,00,59,11.30
2012,08,10,01,00,11.30
2012,08,10,01,01,11.30
2012,08,10,01,02,11.30
2012,08,10,01,03,11.30
2012,08,10,01,04,11.30
2012,08,10,01,05,11.30
2012,08,10,01,06,11.30
2012,08,10,01,07,11.30
2012,08,10,01,08,11.30
2012,08,10,01,09,11.30
2012,08,10,01,10,11.30
2012,08,10,01,11,11.20
2012,08,10,01,12,11.20
2012,08,10,01,13,11.20
2012,08,10,01,14,11.20
2012,08,10,01,15,11.20
2012,08,10,01,16,11.10
2012,08,10,01,17,11.10
2012,08,10,01,18,11.00
2012,08,10,01,19,11.00
2012,08,10,01,20,11.00
2012,08,10,01,21,10.90
2012,08,10,01,22,10.90
2012,08,10,01,23,10.90
2012,08,10,01,24,10.90
2012,08,10,01,25,10.80
2012,08,10,01,26,10.80
2012,08,10,01,27,10.80
2012,08,10,01,28,10.80
2012,08,10,01,29,10.70
2012,08,10,01,30,10.70
2012,08,10,01,31,10.70
2012,08,10,01,32,10.60
2012,08,10,01,33,10.60
2012,08,10,01,34,10.60
2012,08,10,01,35,10.50
2012,08,10,01,36,10.50
2012,08,10,01,37,10.50
2012,08,10,01,38,10.40
2012,08,10,01,39,10.40
2012,08,10,01,40,10.40
2012,08,10,01,41,10.30
2012,08,10,01,42,10.30
2012,08,10,01,43,10.30
2012,08,10,01,44,10.30
2012,08,10,01,45,10.20
2012,08,10,01,46,10.20
2012,08,10,01,47,10.20
2012,08,10,01,48,10.20
2012,08,10,01,49,10.10
2012,08,10,01,50,10.10
2012,08,10,01,51,10.10
2012,08,10,01,52,10.10
2012,08,10,01,53,10.00
2012,08,10,01,54,10.00
2012,08,10,01,55,10.00
2012,08,10,01,56,9.90
2012,08,10,01,57,9.90
2012,08,10,01,58,9.90
2012,08,10,01,59,9.90
2012,08,10,02,00,9.80
2012,08,10,02,01,9.80
2012,08,10,02,02,9.80
2012,08,10,02,03,9.80
2012,08,10,02,04,9.70
2012,08,10,02,05,9.70
2012,08,10,02,06,9.70
2012,08,10,02,07,9.70
2012,08,10,02,08,9.70
2012,08,10,02,09,9.70
2012,08,10,02,10,9.60
2012,08,10,02,11,9.60
2012,08,10,02,12,9.60
2012,08,10,02,13,9.60
2012,08,10,02,14,9.60
2012,08,10,02,15,9.60
2012,08,10,02,16,9.60
2012,08,10,02,17,9.60
2012,08,10,02,18,9.60
2012,08,10,02,19,9.60
2012,08,10,02,20,9.60
2012,08,10,02,21,9.60
2012,08,10,02,22,9.60
2012,08,10,02,23,9.60
2012,08,10,02,24,9.60
2012,08,10,02,25,9.50
2012,08,10,02,26,9.50
2012,08,10,02,27,9.50
2012,08,10,02,28,9.50
2012,08,10,02,29,9.50
2012,08,10,02,30,9.40
2012,08,10,02,31,9.40
2012,08,10,02,32,9.40
2012,08,10,02,33,9.40
2012,08,10,02,34,9.40
2012,08,10,02,35,9.40
2012,08,10,02,36,9.40
2012,08,10,02,37,9.40
2012,08,10,02,38,9.30
2012,08,10,02,39,9.40
2012,08,10,02,40,9.30
2012,08,10,02,41,9.30
2012,08,10,02,42,9.30
2012,08,10,02,43,9.30
2012,08,10,02,44,9.30
2012,08,10,02,45,9.30
2012,08,10,02,46,9.20
2012,08,10,02,47,9.20
2012,08,10,02,48,9.20
2012,08,10,02,49,9.20
2012,08,10,02,50,9.20
2012,08,10,02,51,9.10
2012,08,10,02,52,9.10
2012,08,10,02,53,9.10
2012,08,10,02,54,9.10
2012,08,10,02,55,9.00
2012,08,10,02,56,9.00
2012,08,10,02,57,9.00
2012,08,10,02,58,9.00
2012,08,10,02,59,8.90
2012,08,10,03,00,8.90
2012,08,10,03,01,8.90
2012,08,10,03,02,8.90
2012,08,10,03,03,8.90
2012,08,10,03,04,8.90
2012,08,10,03,05,8.80
2012,08,10,03,06,8.80
2012,08,10,03,07,8.80
2012,08,10,03,08,8.80
2012,08,10,03,09,8.80
2012,08,10,03,10,8.80
2012,08,10,03,11,8.80
2012,08,10,03,12,8.80
2012,08,10,03,13,8.70
2012,08,10,03,14,8.70
2012,08,10,03,15,8.70
2012,08,10,03,16,8.70
2012,08,10,03,17,8.70
2012,08,10,03,18,8.70
2012,08,10,03,19,8.70
2012,08,10,03,20,8.70
2012,08,10,03,21,8.60
2012,08,10,03,22,8.60
2012,08,10,03,23,8.60
2012,08,10,03,24,8.60
2012,08,10,03,25,8.60
2012,08,10,03,26,8.60
2012,08,10,03,27,8.60
2012,08,10,03,28,8.60
2012,08,10,03,29,8.60
2012,08,10,03,30,8.50
2012,08,10,03,31,8.50
2012,08,10,03,32,8.50
2012,08,10,03,33,8.50
2012,08,10,03,34,8.50
2012,08,10,03,35,8.40
2012,08,10,03,36,8.40
2012,08,10,03,37,8.40
2012,08,10,03,38,8.40
2012,08,10,03,39,8.40
2012,08,10,03,40,8.40
2012,08,10,03,41,8.40
2012,08,10,03,42,8.30
2012,08,10,03,43,8.30
2012,08,10,03,44,8.30
2012,08,10,03,45,8.30
2012,08,10,03,46,8.30
2012,08,10,03,47,8.30
2012,08,10,03,48,8.20
2012,08,10,03,49,8.20
2012,08,10,03,50,8.20
2012,08,10,03,51,8.20
2012,08,10,03,52,8.20
2012,08,10,03,53,8.20
2012,08,10,03,54,8.20
2012,08,10,03,55,8.10
2012,08,10,03,56,8.10
2012,08,10,03,57,8.10
2012,08,10,03,58,8.10
2012,08,10,03,59,8.10
2012,08,10,04,00,8.10
2012,08,10,04,01,8.10
2012,08,10,04,02,8.10
2012,08,10,04,03,8.10
2012,08,10,04,04,8.10
2012,08,10,04,05,8.10
2012,08,10,04,06,8.10
2012,08,10,04,07,8.10
2012,08,10,04,08,8.10
2012,08,10,04,09,8.10
2012,08,10,04,10,8.10
2012,08,10,04,11,8.10
2012,08,10,04,12,8.10
2012,08,10,04,13,8.10
2012,08,10,04,14,8.10
2012,08,10,04,15,8.10
2012,08,10,04,16,8.10
2012,08,10,04,17,8.10
2012,08,10,04,18,8.10
2012,08,10,04,19,8.10
2012,08,10,04,20,8.10
2012,08,10,04,21,8.10
2012,08,10,04,22,8.10
2012,08,10,04,23,8.10
2012,08,10,04,24,8.10
2012,08,10,04,25,8.10
2012,08,10,04,26,8.10
2012,08,10,04,27,8.10
2012,08,10,04,28,8.00
2012,08,10,04,29,8.00
2012,08,10,04,30,8.00
2012,08,10,04,31,8.00
2012,08,10,04,32,8.00
2012,08,10,04,33,8.00
2012,08,10,04,34,8.00
2012,08,10,04,35,8.00
2012,08,10,04,36,8.00
2012,08,10,04,37,8.00
2012,08,10,04,38,7.90
2012,08,10,04,39,8.00
2012,08,10,04,40,7.90
2012,08,10,04,41,7.90
2012,08,10,04,42,7.90
2012,08,10,04,43,7.90
2012,08,10,04,44,7.90
2012,08,10,04,45,7.90
2012,08,10,04,46,7.90
2012,08,10,04,47,7.90
2012,08,10,04,48,7.90
2012,08,10,04,49,7.80
2012,08,10,04,50,7.80
2012,08,10,04,51,7.80
2012,08,10,04,52,7.80
2012,08,10,04,53,7.80
2012,08,10,04,54,7.80
2012,08,10,04,55,7.80
2012,08,10,04,56,7.80
2012,08,10,04,57,7.80
2012,08,10,04,58,7.80
2012,08,10,04,59,7.80
2012,08,10,05,00,7.80
2012,08,10,05,01,7.80
2012,08,10,05,02,7.80
2012,08,10,05,03,7.80
2012,08,10,05,04,7.80
2012,08,10,05,05,7.80
2012,08,10,05,06,7.80
2012,08,10,05,07,7.80
2012,08,10,05,08,7.80
2012,08,10,05,09,7.80
2012,08,10,05,10,7.80
2012,08,10,05,11,7.80
2012,08,10,05,12,7.80
2012,08,10,05,13,7.80
2012,08,10,05,14,7.80
2012,08,10,05,15,7.80
2012,08,10,05,16,7.80
2012,08,10,05,17,7.80
2012,08,10,05,18,7.80
2012,08,10,05,19,7.80
2012,08,10,05,20,7.80
2012,08,10,05,21,7.80
2012,08,10,05,22,7.80
2012,08,10,05,23,7.80
2012,08,10,05,24,7.80
2012,08,10,05,25,7.80
2012,08,10,05,26,7.80
2012,08,10,05,27,7.80
2012,08,10,05,28,7.80
2012,08,10,05,29,7.80
2012,08,10,05,30,7.80
2012,08,10,05,31,7.80
2012,08,10,05,32,7.80
2012,08,10,05,33,7.80
2012,08,10,05,34,7.80
2012,08,10,05,35,7.70
2012,08,10,05,36,7.70
2012,08,10,05,37,7.70
2012,08,10,05,38,7.70
2012,08,10,05,39,7.70
2012,08,10,05,40,7.70
2012,08,10,05,41,7.70
2012,08,10,05,42,7.70
2012,08,10,05,43,7.70
2012,08,10,05,44,7.70
2012,08,10,05,45,7.70
2012,08,10,05,46,7.70
2012,08,10,05,47,7.70
2012,08,10,05,48,7.70
2012,08,10,05,49,7.60
2012,08,10,05,50,7.60
2012,08,10,05,51,7.60
2012,08,10,05,52,7.60
2012,08,10,05,53,7.60
2012,08,10,05,54,7.60
2012,08,10,05,55,7.60
2012,08,10,05,56,7.60
2012,08,10,05,57,7.50
2012,08,10,05,58,7.50
2012,08,10,05,59,7.50
2012,08,10,06,00,7.50
2012,08,10,06,01,7.40
2012,08,10,06,02,7.40
2012,08,10,06,03,7.40
2012,08,10,06,04,7.40
2012,08,10,06,05,7.40
2012,08,10,06,06,7.40
2012,08,10,06,07,7.40
2012,08,10,06,08,7.40
2012,08,10,06,09,7.30
2012,08,10,06,10,7.30
2012,08,10,06,11,7.30
2012,08,10,06,12,7.30
2012,08,10,06,13,7.30
2012,08,10,06,14,7.30
2012,08,10,06,15,7.30
2012,08,10,06,16,7.30
2012,08,10,06,17,7.30
2012,08,10,06,18,7.30
2012,08,10,06,19,7.30
2012,08,10,06,20,7.20
2012,08,10,06,21,7.20
2012,08,10,06,22,7.20
2012,08,10,06,23,7.20
2012,08,10,06,24,7.20
2012,08,10,06,25,7.20
2012,08,10,06,26,7.20
2012,08,10,06,27,7.20
2012,08,10,06,28,7.20
2012,08,10,06,29,7.20
2012,08,10,06,30,7.20
2012,08,10,06,31,7.20
2012,08,10,06,32,7.20
2012,08,10,06,33,7.20
2012,08,10,06,34,7.20
2012,08,10,06,35,7.20
2012,08,10,06,36,7.20
2012,08,10,06,37,7.20
2012,08,10,06,38,7.20
2012,08,10,06,39,7.20
2012,08,10,06,40,7.20
2012,08,10,06,41,7.20
2012,08,10,06,42,7.20
2012,08,10,06,43,7.20
2012,08,10,06,44,7.20
2012,08,10,06,45,7.20
2012,08,10,06,46,7.20
2012,08,10,06,47,7.20
2012,08,10,06,48,7.20
2012,08,10,06,49,7.20
2012,08,10,06,50,7.30
2012,08,10,06,51,7.30
2012,08,10,06,52,7.30
2012,08,10,06,53,7.30
2012,08,10,06,54,7.30
2012,08,10,06,55,7.30
2012,08,10,06,56,7.30
2012,08,10,06,57,7.30
2012,08,10,06,58,7.30
2012,08,10,06,59,7.30
2012,08,10,07,00,7.40
2012,08,10,07,01,7.40
2012,08,10,07,02,7.40
2012,08,10,07,03,7.40
2012,08,10,07,04,7.40
2012,08,10,07,05,7.40
2012,08,10,07,06,7.40
2012,08,10,07,07,7.40
2012,08,10,07,08,7.50
2012,08,10,07,09,7.50
2012,08,10,07,10,7.50
2012,08,10,07,11,7.50
2012,08,10,07,12,7.50
2012,08,10,07,13,7.50
2012,08,10,07,14,7.50
2012,08,10,07,15,7.50
2012,08,10,07,16,7.50
2012,08,10,07,17,7.50
2012,08,10,07,18,7.50
2012,08,10,07,19,7.50
2012,08,10,07,20,7.60
2012,08,10,07,21,7.60
2012,08,10,07,22,7.60
2012,08,10,07,23,7.60
2012,08,10,07,24,7.60
2012,08,10,07,25,7.60
2012,08,10,07,26,7.60
2012,08,10,07,27,7.60
2012,08,10,07,28,7.60
2012,08,10,07,29,7.70
2012,08,10,07,30,7.70
2012,08,10,07,31,7.70
2012,08,10,07,32,7.70
2012,08,10,07,33,7.70
2012,08,10,07,34,7.70
2012,08,10,07,35,7.70
2012,08,10,07,36,7.70
2012,08,10,07,37,7.70
2012,08,10,07,38,7.70
2012,08,10,07,39,7.80
2012,08,10,07,40,7.80
2012,08,10,07,41,7.80
2012,08,10,07,42,7.80
2012,08,10,07,43,7.80
2012,08,10,07,44,7.80
2012,08,10,07,45,7.80
2012,08,10,07,46,7.80
2012,08,10,07,47,7.80
2012,08,10,07,48,7.80
2012,08,10,07,49,7.90
2012,08,10,07,50,7.90
2012,08,10,07,51,7.90
2012,08,10,07,52,7.90
2012,08,10,07,53,7.90
2012,08,10,07,54,7.90
2012,08,10,07,55,7.90
2012,08,10,07,56,7.90
2012,08,10,07,57,7.90
2012,08,10,07,58,8.00
2012,08,10,07,59,8.00
2012,08,10,08,00,8.00
2012,08,10,08,01,8.00
2012,08,10,08,02,8.10
2012,08,10,08,03,8.10
2012,08,10,08,04,8.10
2012,08,10,08,05,8.10
2012,08,10,08,06,8.20
2012,08,10,08,07,8.20
2012,08,10,08,08,8.20
2012,08,10,08,09,8.20
2012,08,10,08,10,8.20
2012,08,10,08,11,8.20
2012,08,10,08,12,8.30
2012,08,10,08,13,8.30
2012,08,10,08,14,8.30
2012,08,10,08,15,8.30
2012,08,10,08,16,8.30
2012,08,10,08,17,8.30
2012,08,10,08,18,8.40
2012,08,10,08,19,8.40
2012,08,10,08,20,8.40
2012,08,10,08,21,8.40
2012,08,10,08,22,8.40
2012,08,10,08,23,8.40
2012,08,10,08,24,8.50
2012,08,10,08,25,8.50
2012,08,10,08,26,8.50
2012,08,10,08,27,8.50
2012,08,10,08,28,8.60
2012,08,10,08,29,8.60
2012,08,10,08,30,8.60
2012,08,10,08,31,8.60
2012,08,10,08,32,8.60
2012,08,10,08,33,8.60
2012,08,10,08,34,8.70
2012,08,10,08,35,8.70
2012,08,10,08,36,8.70
2012,08,10,08,37,8.70
2012,08,10,08,38,8.70
2012,08,10,08,39,8.70
2012,08,10,08,40,8.70
2012,08,10,08,41,8.70
2012,08,10,08,42,8.80
2012,08,10,08,43,8.80
2012,08,10,08,44,8.80
2012,08,10,08,45,8.80
2012,08,10,08,46,8.80
2012,08,10,08,47,8.90
2012,08,10,08,48,8.90
2012,08,10,08,49,8.90
2012,08,10,08,50,8.90
2012,08,10,08,51,9.00
2012,08,10,08,52,9.00
2012,08,10,08,53,9.10
2012,08,10,08,54,9.10
2012,08,10,08,55,9.10
2012,08,10,08,56,9.20
2012,08,10,08,57,9.20
2012,08,10,08,58,9.20
2012,08,10,08,59,9.30
2012,08,10,09,00,9.30
2012,08,10,09,01,9.40
2012,08,10,09,02,9.40
2012,08,10,09,03,9.50
2012,08,10,09,04,9.50
2012,08,10,09,05,9.50
2012,08,10,09,06,9.60
2012,08,10,09,07,9.60
2012,08,10,09,08,9.60
2012,08,10,09,09,9.60
2012,08,10,09,10,9.70
2012,08,10,09,11,9.70
2012,08,10,09,12,9.70
2012,08,10,09,13,9.70
2012,08,10,09,14,9.70
2012,08,10,09,15,9.80
2012,08,10,09,16,9.80
2012,08,10,09,17,9.80
2012,08,10,09,18,9.90
2012,08,10,09,19,9.90
2012,08,10,09,20,10.00
2012,08,10,09,21,10.00
2012,08,10,09,22,10.10
2012,08,10,09,23,10.10
2012,08,10,09,24,10.20
2012,08,10,09,25,10.20
2012,08,10,09,26,10.30
2012,08,10,09,27,10.30
2012,08,10,09,28,10.40
2012,08,10,09,29,10.40
2012,08,10,09,30,10.40
2012,08,10,09,31,10.50
2012,08,10,09,32,10.60
2012,08,10,09,33,10.60
2012,08,10,09,34,10.60
2012,08,10,09,35,10.70
2012,08,10,09,36,10.70
2012,08,10,09,37,10.80
2012,08,10,09,38,10.80
2012,08,10,09,39,10.80
2012,08,10,09,40,10.90
2012,08,10,09,41,10.90
2012,08,10,09,42,10.90
2012,08,10,09,43,10.90
2012,08,10,09,44,11.00
2012,08,10,09,45,11.00
2012,08,10,09,46,11.10
2012,08,10,09,47,11.10
2012,08,10,09,48,11.10
2012,08,10,09,49,11.20
2012,08,10,09,50,11.20
2012,08,10,09,51,11.30
2012,08,10,09,52,11.30
2012,08,10,09,53,11.30
2012,08,10,09,54,11.40
2012,08,10,09,55,11.40
2012,08,10,09,56,11.40
2012,08,10,09,57,11.40
2012,08,10,09,58,11.40
2012,08,10,09,59,11.50
2012,08,10,10,00,11.50
2012,08,10,10,01,11.60
2012,08,10,10,02,11.60
2012,08,10,10,03,11.60
2012,08,10,10,04,11.60
2012,08,10,10,05,11.60
2012,08,10,10,06,11.60
2012,08,10,10,07,11.60
2012,08,10,10,08,11.70
2012,08,10,10,09,11.70
2012,08,10,10,10,11.70
2012,08,10,10,11,11.70
2012,08,10,10,12,11.70
2012,08,10,10,13,11.80
2012,08,10,10,14,11.80
2012,08,10,10,15,11.90
2012,08,10,10,16,11.90
2012,08,10,10,17,11.90
2012,08,10,10,18,12.00
2012,08,10,10,19,12.00
2012,08,10,10,20,12.10
2012,08,10,10,21,12.10
2012,08,10,10,22,12.20
2012,08,10,10,23,12.20
2012,08,10,10,24,12.20
2012,08,10,10,25,12.30
2012,08,10,10,26,12.30
2012,08,10,10,27,12.30
2012,08,10,10,28,12.40
2012,08,10,10,29,12.40
2012,08,10,10,30,12.40
2012,08,10,10,31,12.40
2012,08,10,10,32,12.40
2012,08,10,10,33,12.50
2012,08,10,10,34,12.50
2012,08,10,10,35,12.50
2012,08,10,10,36,12.60
2012,08,10,10,37,12.70
2012,08,10,10,38,12.80
2012,08,10,10,39,12.80
2012,08,10,10,40,12.90
2012,08,10,10,41,13.00
2012,08,10,10,42,13.10
2012,08,10,10,43,13.20
2012,08,10,10,44,13.20
2012,08,10,10,45,13.30
2012,08,10,10,46,13.30
2012,08,10,10,47,13.30
2012,08,10,10,48,13.30
2012,08,10,10,49,13.40
2012,08,10,10,50,13.40
2012,08,10,10,51,13.40
2012,08,10,10,52,13.40
2012,08,10,10,53,13.40
2012,08,10,10,54,13.50
2012,08,10,10,55,13.50
2012,08,10,10,56,13.60
2012,08,10,10,57,13.70
2012,08,10,10,58,13.70
2012,08,10,10,59,13.80
2012,08,10,11,00,13.80
2012,08,10,11,01,13.90
2012,08,10,11,02,14.00
2012,08,10,11,03,14.00
2012,08,10,11,04,14.10
2012,08,10,11,05,14.10
2012,08,10,11,06,14.20
2012,08,10,11,07,14.20
2012,08,10,11,08,14.20
2012,08,10,11,09,14.30
2012,08,10,11,10,14.30
2012,08,10,11,11,14.30
2012,08,10,11,12,14.30
2012,08,10,11,13,14.30
2012,08,10,11,14,14.30
2012,08,10,11,15,14.40
2012,08,10,11,16,14.40
2012,08,10,11,17,14.40
2012,08,10,11,18,14.50
2012,08,10,11,19,14.50
2012,08,10,11,20,14.50
2012,08,10,11,21,14.60
2012,08,10,11,22,14.60
2012,08,10,11,23,14.60
2012,08,10,11,24,14.60
2012,08,10,11,25,14.60
2012,08,10,11,26,14.70
2012,08,10,11,27,14.70
2012,08,10,11,28,14.70
2012,08,10,11,29,14.70
2012,08,10,11,30,14.80
2012,08,10,11,31,14.80
2012,08,10,11,32,14.80
2012,08,10,11,33,14.90
2012,08,10,11,34,14.90
2012,08,10,11,35,15.00
2012,08,10,11,36,15.10
2012,08,10,11,37,15.10
2012,08,10,11,38,15.20
2012,08,10,11,39,15.30
2012,08,10,11,40,15.30
2012,08,10,11,41,15.40
2012,08,10,11,42,15.50
2012,08,10,11,43,15.50
2012,08,10,11,44,15.60
2012,08,10,11,45,15.70
2012,08,10,11,46,15.70
2012,08,10,11,47,15.70
2012,08,10,11,48,15.80
2012,08,10,11,49,15.80
2012,08,10,11,50,15.80
2012,08,10,11,51,15.90
2012,08,10,11,52,15.90
2012,08,10,11,53,15.90
2012,08,10,11,54,16.00
2012,08,10,11,55,16.00
2012,08,10,11,56,16.00
2012,08,10,11,57,16.00
2012,08,10,11,58,16.10
2012,08,10,11,59,16.10
2012,08,10,12,00,16.20
2012,08,10,12,01,16.20
2012,08,10,12,02,16.30
2012,08,10,12,03,16.30
2012,08,10,12,04,16.40
2012,08,10,12,05,16.40
2012,08,10,12,06,16.50
2012,08,10,12,07,16.50
2012,08,10,12,08,16.60
2012,08,10,12,09,16.70
2012,08,10,12,10,16.80
2012,08,10,12,11,16.80
2012,08,10,12,12,16.90
2012,08,10,12,13,17.00
2012,08,10,12,14,17.00
2012,08,10,12,15,17.10
2012,08,10,12,16,17.10
2012,08,10,12,17,17.10
2012,08,10,12,18,17.20
2012,08,10,12,19,17.20
2012,08,10,12,20,17.30
2012,08,10,12,21,17.30
2012,08,10,12,22,17.40
2012,08,10,12,23,17.50
2012,08,10,12,24,17.60
2012,08,10,12,25,17.70
2012,08,10,12,26,17.80
2012,08,10,12,27,17.80
2012,08,10,12,28,17.80
2012,08,10,12,29,17.90
2012,08,10,12,30,17.90
2012,08,10,12,31,17.80
2012,08,10,12,32,17.80
2012,08,10,12,33,17.90
2012,08,10,12,34,17.90
2012,08,10,12,35,18.00
2012,08,10,12,36,18.00
2012,08,10,12,37,18.10
2012,08,10,12,38,18.10
2012,08,10,12,39,18.20
2012,08,10,12,40,18.20
2012,08,10,12,41,18.20
2012,08,10,12,42,18.30
2012,08,10,12,43,18.30
2012,08,10,12,44,18.30
2012,08,10,12,45,18.30
2012,08,10,12,46,18.30
2012,08,10,12,47,18.30
2012,08,10,12,48,18.30
2012,08,10,12,49,18.30
2012,08,10,12,50,18.30
2012,08,10,12,51,18.30
2012,08,10,12,52,18.30
2012,08,10,12,53,18.30
2012,08,10,12,54,18.30
2012,08,10,12,55,18.30
2012,08,10,12,56,18.30
2012,08,10,12,57,18.30
2012,08,10,12,58,18.30
2012,08,10,12,59,18.30
2012,08,10,13,00,18.30
2012,08,10,13,01,18.30
2012,08,10,13,02,18.30
2012,08,10,13,03,18.30
2012,08,10,13,04,18.30
2012,08,10,13,05,18.20
2012,08,10,13,06,18.20
2012,08,10,13,07,18.20
2012,08,10,13,08,18.30
2012,08,10,13,09,18.30
2012,08,10,13,10,18.40
2012,08,10,13,11,18.50
2012,08,10,13,12,18.50
2012,08,10,13,13,18.60
2012,08,10,13,14,18.80
2012,08,10,13,15,18.90
2012,08,10,13,16,18.90
2012,08,10,13,17,19.10
2012,08,10,13,18,19.20
2012,08,10,13,19,19.30
2012,08,10,13,20,19.40
2012,08,10,13,21,19.50
2012,08,10,13,22,19.60
2012,08,10,13,23,19.70
2012,08,10,13,24,19.70
2012,08,10,13,25,19.80
2012,08,10,13,26,19.80
2012,08,10,13,27,19.90
2012,08,10,13,28,19.90
2012,08,10,13,29,19.90
2012,08,10,13,30,19.90
2012,08,10,13,31,19.90
2012,08,10,13,32,19.90
2012,08,10,13,33,19.90
2012,08,10,13,34,19.90
2012,08,10,13,35,19.90
2012,08,10,13,36,19.90
2012,08,10,13,37,20.00
2012,08,10,13,38,20.00
2012,08,10,13,39,20.10
2012,08,10,13,40,20.10
2012,08,10,13,41,20.10
2012,08,10,13,42,20.10
2012,08,10,13,43,20.10
2012,08,10,13,44,20.10
2012,08,10,13,45,20.10
2012,08,10,13,46,20.10
2012,08,10,13,47,20.00
2012,08,10,13,48,20.00
2012,08,10,13,49,20.00
2012,08,10,13,50,20.00
2012,08,10,13,51,20.00
2012,08,10,13,52,20.00
2012,08,10,13,53,20.00
2012,08,10,13,54,20.00
2012,08,10,13,55,20.00
2012,08,10,13,56,19.90
2012,08,10,13,57,19.90
2012,08,10,13,58,19.90
2012,08,10,13,59,19.90
2012,08,10,14,00,19.90
2012,08,10,14,01,19.90
2012,08,10,14,02,20.00
2012,08,10,14,03,20.00
2012,08,10,14,04,20.00
2012,08,10,14,05,20.10
2012,08,10,14,06,20.10
2012,08,10,14,07,20.10
2012,08,10,14,08,20.10
2012,08,10,14,09,20.00
2012,08,10,14,10,20.00
2012,08,10,14,11,19.90
2012,08,10,14,12,19.90
2012,08,10,14,13,19.80
2012,08,10,14,14,19.90
2012,08,10,14,15,19.90
2012,08,10,14,16,19.90
2012,08,10,14,17,19.90
2012,08,10,14,18,19.90
2012,08,10,14,19,19.90
2012,08,10,14,20,19.90
2012,08,10,14,21,20.00
2012,08,10,14,22,20.00
2012,08,10,14,23,20.00
2012,08,10,14,24,20.00
2012,08,10,14,25,19.90
2012,08,10,14,26,19.90
2012,08,10,14,27,19.90
2012,08,10,14,28,19.90
2012,08,10,14,29,20.00
2012,08,10,14,30,20.00
2012,08,10,14,31,20.10
2012,08,10,14,32,20.10
2012,08,10,14,33,20.20
2012,08,10,14,34,20.30
2012,08,10,14,35,20.40
2012,08,10,14,36,20.50
2012,08,10,14,37,20.60
2012,08,10,14,38,20.60
2012,08,10,14,39,20.70
2012,08,10,14,40,20.80
2012,08,10,14,41,20.90
2012,08,10,14,42,20.90
2012,08,10,14,43,21.00
2012,08,10,14,44,21.10
2012,08,10,14,45,21.10
2012,08,10,14,46,21.10
2012,08,10,14,47,21.10
2012,08,10,14,48,21.10
2012,08,10,14,49,21.10
2012,08,10,14,50,21.00
2012,08,10,14,51,21.00
2012,08,10,14,52,20.90
2012,08,10,14,53,20.80
2012,08,10,14,54,20.80
2012,08,10,14,55,20.70
2012,08,10,14,56,20.70
2012,08,10,14,57,20.60
2012,08,10,14,58,20.50
2012,08,10,14,59,20.40
2012,08,10,15,00,20.30
2012,08,10,15,01,20.30
2012,08,10,15,02,20.20
2012,08,10,15,03,20.10
2012,08,10,15,04,20.10
2012,08,10,15,05,20.00
2012,08,10,15,06,19.90
2012,08,10,15,07,19.90
2012,08,10,15,08,19.90
2012,08,10,15,09,19.90
2012,08,10,15,10,19.90
2012,08,10,15,11,19.90
2012,08,10,15,12,20.00
2012,08,10,15,13,20.10
2012,08,10,15,14,20.10
2012,08,10,15,15,20.20
2012,08,10,15,16,20.20
2012,08,10,15,17,20.20
2012,08,10,15,18,20.30
2012,08,10,15,19,20.30
2012,08,10,15,20,20.30
2012,08,10,15,21,20.30
2012,08,10,15,22,20.30
2012,08,10,15,23,20.30
2012,08,10,15,24,20.30
2012,08,10,15,25,20.30
2012,08,10,15,26,20.30
2012,08,10,15,27,20.30
2012,08,10,15,28,20.30
2012,08,10,15,29,20.30
2012,08,10,15,30,20.20
2012,08,10,15,31,20.20
2012,08,10,15,32,20.20
2012,08,10,15,33,20.20
2012,08,10,15,34,20.20
2012,08,10,15,35,20.10
2012,08,10,15,36,20.10
2012,08,10,15,37,20.10
2012,08,10,15,38,20.10
2012,08,10,15,39,20.10
2012,08,10,15,40,20.10
2012,08,10,15,41,20.10
2012,08,10,15,42,20.10
2012,08,10,15,43,20.10
2012,08,10,15,44,20.10
2012,08,10,15,45,20.10
2012,08,10,15,46,20.10
2012,08,10,15,47,20.20
2012,08,10,15,48,20.20
2012,08,10,15,49,20.20
2012,08,10,15,50,20.20
2012,08,10,15,51,20.30
2012,08,10,15,52,20.30
2012,08,10,15,53,20.30
2012,08,10,15,54,20.30
2012,08,10,15,55,20.30
2012,08,10,15,56,20.30
2012,08,10,15,57,20.40
2012,08,10,15,58,20.40
2012,08,10,15,59,20.40
2012,08,10,16,00,20.40
2012,08,10,16,01,20.40
2012,08,10,16,02,20.40
2012,08,10,16,03,20.40
2012,08,10,16,04,20.40
2012,08,10,16,05,20.40
2012,08,10,16,06,20.40
2012,08,10,16,07,20.40
2012,08,10,16,08,20.40
2012,08,10,16,09,20.40
2012,08,10,16,10,20.40
2012,08,10,16,11,20.40
2012,08,10,16,12,20.40
2012,08,10,16,13,20.40
2012,08,10,16,14,20.40
2012,08,10,16,15,20.50
2012,08,10,16,16,20.50
2012,08,10,16,17,20.60
2012,08,10,16,18,20.60
2012,08,10,16,19,20.60
2012,08,10,16,20,20.70
2012,08,10,16,21,20.70
2012,08,10,16,22,20.70
2012,08,10,16,23,20.70
2012,08,10,16,24,20.70
2012,08,10,16,25,20.70
2012,08,10,16,26,20.70
2012,08,10,16,27,20.70
2012,08,10,16,28,20.70
2012,08,10,16,29,20.70
2012,08,10,16,30,20.70
2012,08,10,16,31,20.70
2012,08,10,16,32,20.70
2012,08,10,16,33,20.80
2012,08,10,16,34,20.90
2012,08,10,16,35,20.90
2012,08,10,16,36,21.00
2012,08,10,16,37,21.00
2012,08,10,16,38,21.00
2012,08,10,16,39,21.10
2012,08,10,16,40,21.10
2012,08,10,16,41,21.20
2012,08,10,16,42,21.20
2012,08,10,16,43,21.20
2012,08,10,16,44,21.30
2012,08,10,16,45,21.30
2012,08,10,16,46,21.30
2012,08,10,16,47,21.30
2012,08,10,16,48,21.40
2012,08,10,16,49,21.40
2012,08,10,16,50,21.40
2012,08,10,16,51,21.40
2012,08,10,16,52,21.50
2012,08,10,16,53,21.50
2012,08,10,16,54,21.40
2012,08,10,16,55,21.40
2012,08,10,16,56,21.40
2012,08,10,16,57,21.30
2012,08,10,16,58,21.20
2012,08,10,16,59,21.20
2012,08,10,17,00,21.10
2012,08,10,17,01,21.10
2012,08,10,17,02,21.00
2012,08,10,17,03,21.00
2012,08,10,17,04,21.00
2012,08,10,17,05,21.00
2012,08,10,17,06,21.00
2012,08,10,17,07,21.00
2012,08,10,17,08,21.00
2012,08,10,17,09,21.10
2012,08,10,17,10,21.10
2012,08,10,17,11,21.20
2012,08,10,17,12,21.20
2012,08,10,17,13,21.30
2012,08,10,17,14,21.30
2012,08,10,17,15,21.40
2012,08,10,17,16,21.40
2012,08,10,17,17,21.40
2012,08,10,17,18,21.40
2012,08,10,17,19,21.30
2012,08,10,17,20,21.30
2012,08,10,17,21,21.30
2012,08,10,17,22,21.30
2012,08,10,17,23,21.30
2012,08,10,17,24,21.30
2012,08,10,17,25,21.30
2012,08,10,17,26,21.30
2012,08,10,17,27,21.40
2012,08,10,17,28,21.40
2012,08,10,17,29,21.40
2012,08,10,17,30,21.50
2012,08,10,17,31,21.50
2012,08,10,17,32,21.60
2012,08,10,17,33,21.60
2012,08,10,17,34,21.70
2012,08,10,17,35,21.70
2012,08,10,17,36,21.80
2012,08,10,17,37,21.80
2012,08,10,17,38,21.80